Wheaton, MN

7:23 PM CST on February 05, 2016 (GMT -0600)
Wheaton Municipal

Weather History for KETH - August, 2014

Change the Weather History Date:

Sunday, August 24, 2014

  Actual Average Record
Temperature  
Mean Temperature 66 °F -  
Max Temperature 75 °F 83 °F 102 °F (1949)
Min Temperature 57 °F 58 °F 44 °F (1987)
Cooling Degree Days 1    
Growing Degree Days 16 (Base 50)    
Moisture  
Dew Point 62 °F    
Average Humidity 81    
Maximum Humidity 100    
Minimum Humidity 53    
Precipitation  
Precipitation 0.53 in - - ()
Sea Level Pressure  
Sea Level Pressure 29.77 in    
Wind  
Wind Speed 12 mph (South)    
Max Wind Speed 20 mph    
Max Gust Speed 41 mph    
Visibility 10 miles    
Events Rain , Thunderstorm    
Averages and records for this station are not official NWS values.
T = Trace of Precipitation, MM = Missing Value Source: NWS Daily Summary

Daily Weather History Graph

Daily Weather History Graph

Search for Another Location

Airport or City:

Trip Planner

Search our weather history database for the weather conditions in past years. The results will help you decide how hot, cold, wet, or windy it might be!

Date:

Astronomy

Aug. 24, 2014 Rise Set
Actual Time 6:37 AM CDT 8:18 PM CDT
Civil Twilight 6:05 AM CDT 8:50 PM CDT
Nautical Twilight 5:27 AM CDT 9:28 PM CDT
Astronomical Twilight 4:45 AM CDT 10:09 PM CDT
Moon 5:49 AM CDT (8/24) 7:35 PM CDT (8/24)
Length of Visible Light 14h 44m
Length of Day
13h 41m
Waning Crescent, 1% of the Moon is Illuminated
Aug 24
Waning Crescent
Aug 25
New
Sep 2
First Quarter
Sep 8
Full
Sep 15
Last Quarter

Hourly Weather History & Observations

Time (CDT) Temp. Dew Point Humidity Pressure Visibility Wind Dir Wind Speed Gust Speed Precip Events Conditions
12:16 AM 69.8 °F 66.2 °F 88% 29.78 in 10.0 mi ESE 18.4 mph 26.5 mph N/A   Overcast
12:36 AM 69.8 °F 68.0 °F 94% 29.75 in 10.0 mi ESE 17.3 mph 26.5 mph N/A   Scattered Clouds
12:56 AM 69.8 °F 68.0 °F 94% 29.73 in 10.0 mi ESE 18.4 mph 25.3 mph N/A   Scattered Clouds
1:16 AM 69.8 °F 68.0 °F 94% 29.70 in 10.0 mi ESE 19.6 mph 28.8 mph N/A Thunderstorm Scattered Clouds
1:36 AM 66.2 °F 64.4 °F 94% 29.76 in 1.8 mi South 15.0 mph 41.4 mph 0.40 in Rain , Thunderstorm Heavy Thunderstorms and Rain
1:56 AM 64.4 °F 62.6 °F 94% 29.72 in 10.0 mi SE 9.2 mph - N/A Rain , Thunderstorm Thunderstorms and Rain
2:16 AM 64.4 °F 62.6 °F 94% 29.71 in 10.0 mi SSE 6.9 mph - 0.04 in Rain , Thunderstorm Rain
2:36 AM 64.4 °F 62.6 °F 94% 29.74 in 10.0 mi SE 15.0 mph 19.6 mph 0.10 in Rain , Thunderstorm Thunderstorms and Rain
2:56 AM 62.6 °F 62.6 °F 100% 29.73 in 10.0 mi ESE 11.5 mph - N/A Rain Light Rain
3:16 AM 62.6 °F 62.6 °F 100% 29.71 in 10.0 mi SE 8.1 mph - 0.03 in Rain Light Rain
3:36 AM 62.6 °F 62.6 °F 100% 29.72 in 10.0 mi SE 6.9 mph - 0.03 in   Clear
3:56 AM 62.6 °F 62.6 °F 100% 29.74 in 10.0 mi SE 9.2 mph - N/A   Clear
4:16 AM 62.6 °F 62.6 °F 100% 29.75 in 10.0 mi SE 12.7 mph - N/A   Mostly Cloudy
4:36 AM 62.6 °F 62.6 °F 100% 29.76 in 10.0 mi SE 12.7 mph - N/A   Mostly Cloudy
4:56 AM 62.6 °F 62.6 °F 100% 29.75 in 10.0 mi SE 9.2 mph - N/A   Clear
5:16 AM 62.6 °F 60.8 °F 94% 29.74 in 10.0 mi ESE 6.9 mph - N/A   Clear
5:36 AM 62.6 °F 62.6 °F 100% 29.73 in 10.0 mi ESE 9.2 mph - N/A   Clear
5:56 AM 62.6 °F 62.6 °F 100% 29.72 in 10.0 mi ESE 9.2 mph - N/A   Clear
6:16 AM 62.6 °F 62.6 °F 100% 29.73 in 10.0 mi ESE 8.1 mph - N/A   Clear
6:36 AM 62.6 °F 62.6 °F 100% 29.73 in 10.0 mi ESE 9.2 mph - N/A   Clear
6:56 AM 62.6 °F 62.6 °F 100% 29.73 in 10.0 mi SE 11.5 mph - N/A   Clear
7:16 AM 62.6 °F 62.6 °F 100% 29.72 in 10.0 mi SE 10.4 mph - N/A   Clear
7:36 AM 64.4 °F 62.6 °F 94% 29.72 in 10.0 mi SE 11.5 mph - N/A   Clear
7:56 AM 64.4 °F 64.4 °F 100% 29.72 in 10.0 mi SE 10.4 mph - N/A   Clear
8:16 AM 66.2 °F 64.4 °F 94% 29.72 in 10.0 mi SE 12.7 mph - N/A   Clear
8:36 AM 66.2 °F 64.4 °F 94% 29.72 in 10.0 mi SE 11.5 mph - N/A   Clear
8:56 AM 68.0 °F 64.4 °F 88% 29.72 in 10.0 mi SSE 11.5 mph - N/A   Clear
9:16 AM 69.8 °F 64.4 °F 83% 29.73 in 10.0 mi SSE 10.4 mph 16.1 mph N/A   Clear
9:36 AM 69.8 °F 66.2 °F 88% 29.73 in 10.0 mi SE 15.0 mph - N/A   Clear
9:56 AM 71.6 °F 66.2 °F 83% 29.74 in 10.0 mi SSE 15.0 mph 18.4 mph N/A   Clear
10:16 AM 71.6 °F 66.2 °F 83% 29.74 in 10.0 mi South 16.1 mph - N/A   Clear
10:36 AM 71.6 °F 66.2 °F 83% 29.74 in 10.0 mi South 12.7 mph 17.3 mph N/A   Scattered Clouds
10:56 AM 73.4 °F 68.0 °F 83% 29.74 in 10.0 mi South 12.7 mph 18.4 mph N/A   Clear
11:16 AM 73.4 °F 68.0 °F 83% 29.74 in 10.0 mi South 11.5 mph 17.3 mph N/A   Clear
11:36 AM 73.4 °F 68.0 °F 83% 29.75 in 10.0 mi South 10.4 mph - N/A   Clear
11:56 AM 73.4 °F 69.8 °F 88% 29.75 in 10.0 mi South 10.4 mph - N/A   Clear
12:16 PM 75.2 °F 69.8 °F 83% 29.75 in 10.0 mi SSW 10.4 mph 17.3 mph N/A   Clear
12:36 PM 75.2 °F 66.2 °F 73% 29.76 in 10.0 mi SSW 16.1 mph - N/A   Clear
12:56 PM 75.2 °F 66.2 °F 73% 29.77 in 10.0 mi SW 18.4 mph - N/A   Scattered Clouds
1:16 PM 73.4 °F 66.2 °F 78% 29.78 in 10.0 mi SW 15.0 mph 19.6 mph N/A   Scattered Clouds
1:36 PM 73.4 °F 66.2 °F 78% 29.78 in 10.0 mi SW 13.8 mph - N/A   Clear
1:56 PM 73.4 °F 64.4 °F 73% 29.78 in 10.0 mi WSW 12.7 mph 17.3 mph N/A   Clear
2:16 PM 75.2 °F 64.4 °F 69% 29.78 in 10.0 mi WSW 11.5 mph 16.1 mph N/A   Scattered Clouds
2:36 PM 75.2 °F 62.6 °F 65% 29.78 in 10.0 mi SW 12.7 mph 18.4 mph N/A   Scattered Clouds
2:56 PM 75.2 °F 60.8 °F 61% 29.79 in 10.0 mi SW 12.7 mph - N/A   Clear
3:16 PM 75.2 °F 62.6 °F 65% 29.78 in 10.0 mi SW 10.4 mph - N/A   Clear
3:36 PM 75.2 °F 62.6 °F 65% 29.79 in 10.0 mi WSW 9.2 mph - N/A   Clear
3:56 PM 75.2 °F 60.8 °F 61% 29.79 in 10.0 mi SW 12.7 mph - N/A   Clear
4:16 PM 75.2 °F 57.2 °F 53% 29.80 in 10.0 mi WSW 10.4 mph 21.9 mph N/A   Clear
4:36 PM 75.2 °F 59.0 °F 57% 29.80 in 10.0 mi WSW 10.4 mph - N/A   Clear
4:56 PM 75.2 °F 57.2 °F 53% 29.81 in 10.0 mi WSW 12.7 mph 16.1 mph N/A   Clear
5:16 PM 75.2 °F 57.2 °F 53% 29.81 in 10.0 mi SW 12.7 mph 17.3 mph N/A   Clear
5:36 PM 75.2 °F 57.2 °F 53% 29.81 in 10.0 mi SW 12.7 mph - N/A   Clear
5:56 PM 75.2 °F 57.2 °F 53% 29.82 in 10.0 mi SSW 8.1 mph - N/A   Clear
6:16 PM 73.4 °F 57.2 °F 57% 29.82 in 10.0 mi SW 5.8 mph - N/A   Clear
6:36 PM 73.4 °F 55.4 °F 53% 29.83 in 10.0 mi SW 9.2 mph - N/A   Clear
6:56 PM 73.4 °F 57.2 °F 57% 29.83 in 10.0 mi WSW 6.9 mph - N/A   Clear
7:16 PM 71.6 °F 57.2 °F 60% 29.83 in 10.0 mi SW 5.8 mph - N/A   Clear
7:36 PM 69.8 °F 55.4 °F 60% 29.83 in 10.0 mi SSW 4.6 mph - N/A   Clear
7:56 PM 68.0 °F 57.2 °F 68% 29.83 in 10.0 mi WSW 3.5 mph - N/A   Clear
8:16 PM 66.2 °F 55.4 °F 68% 29.84 in 10.0 mi SSW 4.6 mph - N/A   Clear
8:36 PM 66.2 °F 55.4 °F 68% 29.84 in 10.0 mi Calm Calm - N/A   Clear
8:56 PM 64.4 °F 55.4 °F 73% 29.85 in 10.0 mi Calm Calm - N/A   Clear
9:16 PM 64.4 °F 55.4 °F 73% 29.84 in 10.0 mi Calm Calm - N/A   Clear
9:36 PM 60.8 °F 55.4 °F 82% 29.85 in 10.0 mi Calm Calm - N/A   Clear
9:56 PM 60.8 °F 55.4 °F 82% 29.85 in 10.0 mi Calm Calm - N/A   Clear
10:16 PM 57.2 °F 55.4 °F 94% 29.85 in 10.0 mi SE 5.8 mph - N/A   Clear
10:36 PM 59.0 °F 55.4 °F 88% 29.85 in 10.0 mi SSE 5.8 mph - N/A   Clear
10:56 PM 60.8 °F 55.4 °F 82% 29.86 in 10.0 mi South 5.8 mph - N/A   Clear
11:16 PM 60.8 °F 55.4 °F 82% 29.86 in 10.0 mi South 6.9 mph - N/A   Clear
11:36 PM 60.8 °F 55.4 °F 82% 29.87 in 10.0 mi SW 3.5 mph - N/A   Clear
11:56 PM 59.0 °F 55.4 °F 88% 29.87 in 10.0 mi SW 5.8 mph - N/A   Clear